AFR603 SBBE-SOCA

Flight info

Callsign AFR603
Flight time 1h 7m
Altitude 37000
Route PUDMI DCT VURTU/N0465F360 UA555 ALDIX
Aircraft A320/M-SDE3FGHIRWY/LB1

Departure

Time 2026-05-01 13:01
Airport Val de Cans/Júlio Cezar Ribeiro International Airport (SBBE)

Arrival

Time 2026-05-01 14:08
Airport Cayenne – Félix Eboué Airport (SOCA)
Time Latitude Longitude Altitude Speed Heading
2026-05-01 12:34 -1.38712 -48.47864 43 ft 0 kts 275°
2026-05-01 12:53 -1.38713 -48.47847 43 ft 4 kts 278°
2026-05-01 12:53 -1.38719 -48.47821 43 ft 4 kts 294°
2026-05-01 12:54 -1.38733 -48.47801 41 ft 4 kts 339°
2026-05-01 12:54 -1.38743 -48.47798 43 ft 0 kts
2026-05-01 12:57 -1.38742 -48.47798 43 ft 2 kts
2026-05-01 12:57 -1.38668 -48.47820 43 ft 5 kts 277°
2026-05-01 12:57 -1.38669 -48.47865 43 ft 7 kts 268°
2026-05-01 12:58 -1.38671 -48.47931 43 ft 11 kts 269°
2026-05-01 12:58 -1.38672 -48.48000 44 ft 9 kts 269°
2026-05-01 12:58 -1.38673 -48.48059 44 ft 8 kts 268°
2026-05-01 12:59 -1.38679 -48.48271 43 ft 16 kts 270°
2026-05-01 12:59 -1.38666 -48.48352 42 ft 2 kts 328°
2026-05-01 12:59 -1.38647 -48.48344 42 ft 2 kts 48°
2026-05-01 13:00 -1.38179 -48.47869 43 ft 112 kts 45°
2026-05-01 13:00 -1.37497 -48.47187 93 ft 159 kts 44°
2026-05-01 13:01 -1.35975 -48.45666 1460 ft 160 kts 44°
2026-05-01 13:01 -1.34857 -48.45305 1838 ft 189 kts 354°
2026-05-01 13:01 -1.32493 -48.47098 2590 ft 241 kts 317°
2026-05-01 13:02 -1.31336 -48.48339 3313 ft 250 kts 315°
2026-05-01 13:07 -1.03841 -48.90212 16014 ft 412 kts 305°
2026-05-01 13:07 -1.02328 -48.92661 16511 ft 416 kts 305°
2026-05-01 13:07 -1.00804 -48.95131 17001 ft 419 kts 305°
2026-05-01 13:08 -0.99270 -48.97618 17478 ft 422 kts 305°
2026-05-01 13:08 -0.97729 -49.00120 17948 ft 425 kts 305°
2026-05-01 13:08 -0.96172 -49.02646 18399 ft 428 kts 305°
2026-05-01 13:08 -0.94602 -49.05189 18797 ft 431 kts 305°
2026-05-01 13:09 -0.93022 -49.07741 19190 ft 433 kts 305°
2026-05-01 13:09 -0.91450 -49.10279 19538 ft 437 kts 304°
2026-05-01 13:09 -0.89848 -49.12873 19900 ft 441 kts 304°
2026-05-01 13:09 -0.88234 -49.15490 20267 ft 444 kts 304°
2026-05-01 13:10 -0.86610 -49.18125 20651 ft 446 kts 303°
2026-05-01 13:10 -0.84981 -49.20768 21076 ft 447 kts 303°
2026-05-01 13:10 -0.83349 -49.23421 21467 ft 449 kts 303°
2026-05-01 13:10 -0.81707 -49.26087 21834 ft 451 kts 303°
2026-05-01 13:11 -0.80054 -49.28760 22210 ft 454 kts 304°
2026-05-01 13:11 -0.78392 -49.31451 22548 ft 457 kts 303°
2026-05-01 13:11 -0.76730 -49.34168 22857 ft 460 kts 303°
2026-05-01 13:11 -0.75071 -49.36907 23179 ft 463 kts 303°
2026-05-01 13:12 -0.73407 -49.39667 23506 ft 465 kts 302°
2026-05-01 13:12 -0.71737 -49.42442 23777 ft 467 kts 302°
2026-05-01 13:12 -0.70058 -49.45231 24040 ft 469 kts 302°
2026-05-01 13:12 -0.68388 -49.47997 24288 ft 471 kts 303°
2026-05-01 13:13 -0.66690 -49.50800 24558 ft 473 kts 303°
2026-05-01 13:13 -0.64983 -49.53615 24821 ft 475 kts 303°
2026-05-01 13:13 -0.63268 -49.56445 25072 ft 477 kts 302°
2026-05-01 13:13 -0.61548 -49.59284 25333 ft 479 kts 302°
2026-05-01 13:14 -0.59819 -49.62130 25580 ft 481 kts 303°
2026-05-01 13:14 -0.58079 -49.64992 25830 ft 482 kts 302°
2026-05-01 13:14 -0.56340 -49.67860 26114 ft 483 kts 302°
2026-05-01 13:14 -0.54603 -49.70735 26370 ft 484 kts 302°
2026-05-01 13:15 -0.52860 -49.73618 26627 ft 486 kts 302°
2026-05-01 13:15 -0.51105 -49.76516 26856 ft 487 kts 302°
2026-05-01 13:15 -0.49347 -49.79417 27088 ft 489 kts 302°
2026-05-01 13:15 -0.47520 -49.82233 27312 ft 489 kts 308°
2026-05-01 13:16 -0.45270 -49.84776 27531 ft 489 kts 318°
2026-05-01 13:16 -0.42638 -49.86913 27750 ft 488 kts 328°
2026-05-01 13:16 -0.39697 -49.88598 27963 ft 487 kts 337°
2026-05-01 13:17 -0.30113 -49.91850 28836 ft 484 kts 344°
2026-05-01 13:17 -0.26904 -49.92878 29154 ft 484 kts 344°
2026-05-01 13:18 -0.20503 -49.94927 29793 ft 483 kts 344°
2026-05-01 13:18 -0.17308 -49.95950 30100 ft 482 kts 344°
2026-05-01 13:18 -0.14114 -49.96972 30383 ft 481 kts 344°
2026-05-01 13:18 -0.10973 -49.97972 30712 ft 479 kts 344°
2026-05-01 13:19 -0.07809 -49.98980 31045 ft 477 kts 344°
2026-05-01 13:19 -0.04648 -49.99986 31357 ft 476 kts 344°
2026-05-01 13:19 0.01642 -50.01990 31942 ft 474 kts 343°
2026-05-01 13:20 0.04788 -50.02994 32233 ft 474 kts 343°
2026-05-01 13:20 0.07927 -50.03995 32531 ft 473 kts 343°
2026-05-01 13:20 0.11062 -50.04993 32847 ft 472 kts 343°
2026-05-01 13:21 0.17316 -50.06987 33482 ft 471 kts 343°
2026-05-01 13:21 0.20429 -50.07980 33807 ft 470 kts 343°
2026-05-01 13:21 0.23540 -50.08975 34115 ft 469 kts 343°
2026-05-01 13:21 0.26646 -50.09969 34401 ft 468 kts 343°
2026-05-01 13:22 0.29700 -50.10947 34677 ft 467 kts 343°
2026-05-01 13:22 0.32796 -50.11937 34913 ft 467 kts 343°
2026-05-01 13:22 0.35892 -50.12925 35163 ft 467 kts 343°
2026-05-01 13:22 0.38986 -50.13908 35422 ft 466 kts 343°
2026-05-01 13:23 0.42075 -50.14891 35675 ft 466 kts 343°
2026-05-01 13:23 0.45157 -50.15874 35932 ft 465 kts 343°
2026-05-01 13:23 0.48234 -50.16857 36187 ft 464 kts 343°
2026-05-01 13:23 0.51306 -50.17839 36436 ft 463 kts 343°
2026-05-01 13:24 0.54375 -50.18815 36678 ft 462 kts 343°
2026-05-01 13:24 0.57432 -50.19787 36924 ft 461 kts 343°
2026-05-01 13:24 0.60489 -50.20762 37146 ft 461 kts 343°
2026-05-01 13:25 0.66616 -50.22718 37496 ft 463 kts 343°
2026-05-01 13:25 0.69640 -50.23686 37699 ft 462 kts 343°
2026-05-01 13:25 0.72704 -50.24668 37906 ft 462 kts 343°
2026-05-01 13:26 0.78844 -50.26627 37989 ft 464 kts 343°
2026-05-01 13:26 0.84995 -50.28587 37991 ft 464 kts 343°
2026-05-01 13:27 0.91144 -50.30553 37991 ft 464 kts 343°
2026-05-01 13:27 1.00385 -50.33500 37994 ft 464 kts 343°
2026-05-01 13:28 1.09580 -50.36436 37998 ft 465 kts 343°
2026-05-01 13:29 1.21904 -50.40380 38011 ft 465 kts 343°
2026-05-01 13:31 1.40322 -50.46247 38013 ft 464 kts 343°
2026-05-01 13:32 1.55664 -50.51155 38018 ft 462 kts 343°
2026-05-01 13:33 1.70909 -50.56016 38013 ft 461 kts 343°
2026-05-01 13:34 1.83113 -50.59917 38004 ft 461 kts 343°
2026-05-01 13:35 1.92278 -50.62847 38002 ft 461 kts 343°
2026-05-01 13:36 2.01450 -50.65777 38012 ft 461 kts 343°
2026-05-01 13:36 2.10567 -50.68689 38019 ft 460 kts 343°
2026-05-01 13:37 2.15616 -50.70339 38020 ft 460 kts 339°
2026-05-01 13:37 2.19419 -50.72292 38019 ft 461 kts 328°
2026-05-01 13:37 2.22102 -50.74043 38016 ft 460 kts 328°
2026-05-01 13:38 2.30170 -50.79253 38014 ft 460 kts 328°
2026-05-01 13:39 2.35517 -50.82690 38013 ft 460 kts 328°
2026-05-01 13:39 2.40901 -50.86164 38009 ft 461 kts 328°
2026-05-01 13:40 2.46289 -50.89647 38004 ft 461 kts 328°
2026-05-01 13:40 2.51683 -50.93136 37997 ft 462 kts 328°
2026-05-01 13:41 2.57092 -50.96631 37997 ft 463 kts 328°
2026-05-01 13:41 2.62473 -51.00101 38006 ft 464 kts 328°
2026-05-01 13:42 2.67893 -51.03606 38007 ft 464 kts 328°
2026-05-01 13:42 2.73319 -51.07107 38011 ft 464 kts 328°
2026-05-01 13:43 2.78744 -51.10606 38015 ft 464 kts 328°
2026-05-01 13:43 2.84173 -51.14114 38015 ft 464 kts 328°
2026-05-01 13:44 2.89562 -51.17598 38013 ft 464 kts 328°
2026-05-01 13:44 2.94988 -51.21108 38013 ft 464 kts 328°
2026-05-01 13:45 3.00418 -51.24613 38013 ft 464 kts 328°
2026-05-01 13:45 3.05845 -51.28117 37973 ft 464 kts 328°
2026-05-01 13:45 3.08550 -51.29877 37706 ft 464 kts 327°
2026-05-01 13:46 3.11199 -51.31714 37461 ft 463 kts 324°
2026-05-01 13:46 3.13781 -51.33638 37203 ft 463 kts 323°
2026-05-01 13:46 3.16290 -51.35594 36951 ft 464 kts 322°
2026-05-01 13:46 3.18823 -51.37604 36701 ft 465 kts 322°
2026-05-01 13:47 3.21361 -51.39612 36465 ft 466 kts 323°
2026-05-01 13:47 3.23920 -51.41600 36213 ft 465 kts 323°
2026-05-01 13:47 3.26492 -51.43567 35969 ft 465 kts 323°
2026-05-01 13:47 3.29071 -51.45521 35735 ft 465 kts 323°
2026-05-01 13:48 3.31650 -51.47467 35498 ft 464 kts 323°
2026-05-01 13:48 3.34223 -51.49411 35266 ft 464 kts 323°
2026-05-01 13:48 3.36796 -51.51359 35034 ft 463 kts 323°
2026-05-01 13:48 3.39357 -51.53305 34808 ft 462 kts 323°
2026-05-01 13:49 3.41911 -51.55250 34580 ft 461 kts 323°
2026-05-01 13:49 3.44466 -51.57192 34351 ft 461 kts 323°
2026-05-01 13:49 3.47018 -51.59129 34127 ft 461 kts 323°
2026-05-01 13:49 3.49545 -51.61048 33892 ft 462 kts 323°
2026-05-01 13:50 3.52107 -51.62993 33625 ft 463 kts 323°
2026-05-01 13:50 3.54674 -51.64943 33386 ft 463 kts 324°
2026-05-01 13:50 3.57243 -51.66894 33140 ft 464 kts 323°
2026-05-01 13:50 3.59814 -51.68850 32892 ft 465 kts 323°
2026-05-01 13:51 3.62387 -51.70808 32647 ft 465 kts 323°
2026-05-01 13:51 3.64964 -51.72771 32408 ft 466 kts 323°
2026-05-01 13:51 3.67545 -51.74738 32169 ft 467 kts 324°
2026-05-01 13:51 3.70131 -51.76707 31933 ft 467 kts 324°
2026-05-01 13:52 3.72721 -51.78677 31698 ft 468 kts 324°
2026-05-01 13:52 3.75314 -51.80650 31078 ft 470 kts 324°
2026-05-01 13:52 3.77939 -51.82647 29907 ft 478 kts 324°
2026-05-01 13:52 3.79697 -51.83986 29055 ft 482 kts 324°
2026-05-01 13:53 3.82381 -51.86030 27843 ft 487 kts 324°
2026-05-01 13:53 3.88712 -51.90846 25043 ft 497 kts 324°
2026-05-01 13:53 3.91473 -51.92943 23873 ft 500 kts 324°
2026-05-01 13:54 3.94255 -51.95059 22603 ft 504 kts 324°
2026-05-01 13:54 3.96096 -51.96459 22124 ft 498 kts 324°
2026-05-01 13:54 3.98826 -51.98536 21389 ft 489 kts 324°
2026-05-01 13:54 4.01521 -52.00584 20571 ft 484 kts 324°
2026-05-01 13:55 4.04190 -52.02610 19793 ft 479 kts 324°
2026-05-01 13:55 4.06831 -52.04615 19045 ft 474 kts 324°
2026-05-01 13:55 4.09446 -52.06598 18319 ft 469 kts 324°
2026-05-01 13:55 4.12036 -52.08565 17526 ft 465 kts 324°
2026-05-01 13:56 4.14593 -52.10511 16802 ft 459 kts 325°
2026-05-01 13:56 4.17119 -52.12432 16119 ft 453 kts 325°
2026-05-01 13:56 4.19614 -52.14332 15480 ft 448 kts 325°
2026-05-01 13:56 4.22075 -52.16208 14825 ft 442 kts 325°
2026-05-01 13:57 4.24510 -52.18062 14162 ft 437 kts 325°
2026-05-01 13:57 4.26885 -52.19872 13478 ft 432 kts 325°
2026-05-01 13:57 4.29265 -52.21683 12749 ft 428 kts 325°
2026-05-01 13:57 4.31612 -52.23469 12276 ft 416 kts 325°
2026-05-01 13:58 4.33863 -52.25182 12159 ft 397 kts 325°
2026-05-01 13:58 4.36018 -52.26820 12033 ft 380 kts 325°
2026-05-01 13:58 4.38077 -52.28389 11913 ft 364 kts 325°
2026-05-01 13:58 4.40048 -52.29893 11785 ft 349 kts 325°
2026-05-01 13:59 4.41946 -52.31340 11667 ft 336 kts 325°
2026-05-01 13:59 4.43773 -52.32730 11546 ft 324 kts 325°
2026-05-01 13:59 4.45540 -52.34073 11361 ft 315 kts 325°
2026-05-01 13:59 4.47253 -52.35375 11068 ft 312 kts 325°
2026-05-01 14:00 4.48977 -52.36686 10728 ft 310 kts 325°
2026-05-01 14:00 4.50692 -52.37991 10376 ft 309 kts 325°
2026-05-01 14:00 4.52396 -52.39291 10038 ft 307 kts 325°
2026-05-01 14:00 4.54093 -52.40588 9662 ft 306 kts 325°
2026-05-01 14:01 4.55780 -52.41874 9276 ft 304 kts 325°
2026-05-01 14:01 4.57460 -52.43152 8908 ft 303 kts 326°
2026-05-01 14:01 4.59133 -52.44422 8517 ft 301 kts 326°
2026-05-01 14:01 4.60797 -52.45685 8142 ft 299 kts 326°
2026-05-01 14:02 4.62449 -52.46939 7751 ft 297 kts 325°
2026-05-01 14:02 4.64093 -52.48191 7371 ft 296 kts 325°
2026-05-01 14:02 4.65706 -52.49425 6994 ft 295 kts 325°
2026-05-01 14:02 4.67333 -52.50666 6573 ft 294 kts 325°
2026-05-01 14:03 4.68992 -52.51929 5801 ft 302 kts 325°
2026-05-01 14:03 4.70668 -52.53191 5029 ft 299 kts 327°
2026-05-01 14:03 4.72403 -52.54319 4299 ft 294 kts 331°
2026-05-01 14:03 4.74245 -52.55078 3724 ft 280 kts 354°
2026-05-01 14:04 4.76103 -52.54946 3292 ft 260 kts 22°
2026-05-01 14:04 4.77524 -52.53996 3008 ft 236 kts 53°
2026-05-01 14:04 4.78154 -52.52581 2758 ft 217 kts 85°
2026-05-01 14:04 4.77926 -52.51139 2530 ft 207 kts 108°
2026-05-01 14:05 4.77480 -52.49817 2293 ft 199 kts 103°
2026-05-01 14:05 4.77144 -52.48505 2150 ft 190 kts 102°
2026-05-01 14:05 4.77053 -52.47235 2014 ft 178 kts 82°
2026-05-01 14:05 4.77393 -52.46113 1820 ft 161 kts 67°
2026-05-01 14:06 4.77852 -52.45121 1640 ft 153 kts 66°
2026-05-01 14:06 4.78285 -52.44185 1433 ft 145 kts 66°
2026-05-01 14:06 4.78703 -52.43278 1250 ft 141 kts 66°
2026-05-01 14:06 4.79116 -52.42383 1072 ft 143 kts 65°
2026-05-01 14:07 4.79527 -52.41492 891 ft 140 kts 68°
2026-05-01 14:07 4.79944 -52.40586 725 ft 145 kts 69°
2026-05-01 14:07 4.80361 -52.39682 561 ft 143 kts 66°
2026-05-01 14:08 4.81168 -52.37933 177 ft 135 kts 66°
2026-05-01 14:08 4.81563 -52.37078 37 ft 131 kts 68°
2026-05-01 14:08 4.81888 -52.36361 29 ft 89 kts 65°
2026-05-01 14:08 4.82068 -52.35971 29 ft 35 kts 64°
2026-05-01 14:09 4.82164 -52.35763 29 ft 31 kts 65°
2026-05-01 14:09 4.82242 -52.35593 30 ft 22 kts 65°
2026-05-01 14:09 4.82252 -52.35502 30 ft 12 kts 98°
2026-05-01 14:09 4.82288 -52.35492 30 ft 7 kts 282°
2026-05-01 14:10 4.82265 -52.35548 30 ft 12 kts 246°
2026-05-01 14:10 4.82225 -52.35636 29 ft 16 kts 245°
2026-05-01 14:10 4.82169 -52.35755 29 ft 22 kts 246°
2026-05-01 14:10 4.82080 -52.35943 29 ft 36 kts 246°
2026-05-01 14:11 4.81990 -52.36139 29 ft 18 kts 244°
2026-05-01 14:11 4.82063 -52.36254 29 ft 12 kts 336°
2026-05-01 14:11 4.82086 -52.36310 29 ft 7 kts 252°
2026-05-01 14:12 4.82099 -52.36342 29 ft 5 kts 326°
2026-05-01 14:12 4.82126 -52.36354 29 ft 4 kts 334°
2026-05-01 14:12 4.82149 -52.36365 29 ft 3 kts 334°
2026-05-01 14:12 4.82154 -52.36367 29 ft 0 kts 334°